This is the latest recevied weather packets stored in our database for station/object KC1HBM. If no packets are shown the sender has not sent any weather packets the latest 10 day(s).
| Time | Temp. | Humidity | Pressure | Rain* | Wind** | Luminosity | Snow |
|---|---|---|---|---|---|---|---|
| 1787865712 | 22.22° C | 90% | 1013.7 hPa | 0 mm | - | 39 W/m² | - |
| 1787865412 | 22.22° C | 90% | 1014 hPa | 0 mm | - | 30 W/m² | - |
| 1787865107 | 22.78° C | 89% | 1013.9 hPa | 0 mm | - | 42 W/m² | - |
| 1787864803 | 22.78° C | 90% | 1013.9 hPa | 0 mm | - | 52 W/m² | - |
| 1787864502 | 22.78° C | 90% | 1013.7 hPa | 0 mm | - | 43 W/m² | - |
| 1787864197 | 22.78° C | 90% | 1014 hPa | 0 mm | - | 44 W/m² | - |
| 1787863892 | 22.78° C | 90% | 1013.9 hPa | 0 mm | - | 49 W/m² | - |
| 1787863590 | 22.78° C | 90% | 1013.9 hPa | 0 mm | - | 55 W/m² | - |
| 1787863285 | 22.78° C | 90% | 1013.9 hPa | 0 mm | - | 55 W/m² | - |
| 1787862981 | 22.78° C | 90% | 1014.1 hPa | 0 mm | - | 63 W/m² | - |
| 1787862670 | 22.78° C | 89% | 1014.1 hPa | 0 mm | - | 35 W/m² | - |
| 1787862365 | 22.78° C | 87% | 1014.1 hPa | 0 mm | - | 44 W/m² | - |
| 1787862061 | 22.78° C | 88% | 1014 hPa | 0 mm | - | 63 W/m² | - |
| 1787861760 | 22.78° C | 88% | 1014 hPa | 0 mm | - | 54 W/m² | - |
| 1787861458 | 22.78° C | 89% | 1014 hPa | 0 mm | - | 74 W/m² | - |
| 1787861153 | 22.78° C | 89% | 1014.2 hPa | 0 mm | - | 39 W/m² | - |
| 1787860852 | 22.78° C | 89% | 1014.1 hPa | 0 mm | - | 24 W/m² | - |
| 1787860547 | 22.78° C | 89% | 1014.1 hPa | 0 mm | - | 38 W/m² | - |
| 1787860242 | 23.33° C | 87% | 1014.1 hPa | 0 mm | - | 41 W/m² | - |
| 1787859938 | 23.89° C | 86% | 1014.1 hPa | 0 mm | - | 55 W/m² | - |
| 1787859633 | 23.89° C | 87% | 1014.1 hPa | 0 mm | - | 80 W/m² | - |
| 1787859332 | 24.44° C | 86% | 1014.2 hPa | 0 mm | - | 109 W/m² | - |
| 1787859029 | 23.89° C | 87% | 1014.1 hPa | 0 mm | - | 115 W/m² | - |
| 1787858725 | 23.33° C | 87% | 1014.1 hPa | 0 mm | - | 81 W/m² | - |
| 1787858420 | 23.33° C | 87% | 1014.3 hPa | 0 mm | - | 72 W/m² | - |
* Rain latest hour (hover to see other rain measurements)
** Current wind speed in m/s (hover to see current wind gust speed)